Regional Weather Roundup
Issued by NWS

Home | Current Version | Previous Version | Text Only | Print | Product List | Glossary Off
Versions: 1 2 3 4 5 6 7 8 9 10 11 12 13 14 15 16 17 18 19 20 21 22 23 24 25 26 27 28 29 30 31 32 33 34 35 36 37 38 39 40 41 42 43 44 45 46 47 48 49 50

000
ASUS43 KDMX 282301
RWRIA

WEATHER ROUNDUP FOR IOWA
NATIONAL WEATHER SERVICE DES MOINES IA
600 PM CDT FRI APR 28 2017

NOTE: "FAIR" INDICATES FEW OR NO CLOUDS BELOW 12,000 FEET WITH NO
SIGNIFICANT WEATHER AND/OR OBSTRUCTIONS TO VISIBILITY.

* - THESE STATIONS ARE NOT NWS STATIONS...THUS NOT UNDER NWS
QUALITY CONTROL.  THEY ALSO DO NOT REPORT WEATHER SUCH
AS PRECIPITATION OR FOG.

IAZ001>003-012>014-020>022-031>034-043>046-290000-
   NORTHWEST IOWA

CITY           SKY/WX    TMP DP  RH WIND       PRES   REMARKS
CARROLL *      CLOUDY    41  39  93 NE16      29.91R
CHEROKEE *     CLOUDY    45  35  67 NE15G21   29.94S
DENISON *      PTSUNNY   41  37  87 NE9G17    29.93R
LE MARS *      CLOUDY    48  34  57 NE13G22   29.96R
ORANGE CITY *  CLOUDY    46  34  61 NE14      29.94F
SHELDON *      CLOUDY    46  28  49 NE16G23   29.94R
SIOUX CITY     CLOUDY    46  35  65 NE10      29.95R
SPENCER        CLOUDY    47  33  58 NE15      29.95R
STORM LAKE *   LGT RAIN  43  34  70 NE18      29.92S
$$

IAZ055>058-069>071-079>083-090>094-290000-
   SOUTHWEST IOWA

CITY           SKY/WX    TMP DP  RH WIND       PRES   REMARKS
ATLANTIC *     CLOUDY    41  39  93 NE13      29.90R
AUDUBON *      CLOUDY    41  37  87 NE9       29.92R
CLARINDA *     CLOUDY    45  41  87 NE13      29.89R
COUNCIL BLFS * CLOUDY    39  39 100 N13       29.90R FOG     WCI  32
CRESTON *      CLOUDY    41  41 100 NE20      29.88R
HARLAN  *      CLOUDY    41  41 100 NE15      29.95R FOG
LAMONI         LGT RAIN  42  40  92 NE13      29.84R
RED OAK *      CLOUDY    43  39  87 NE14G24   29.89R
SHENANDOAH *   CLOUDY    43  41  93 NE15G22   29.88R
$$

IAZ047>049-059>061-072>074-084-290000-
   CENTRAL IOWA

CITY           SKY/WX    TMP DP  RH WIND       PRES   REMARKS
AMES           CLOUDY    44  40  85 NE14      29.90R
ANKENY *       CLOUDY    43  41  93 NE12      29.90R
BOONE *        CLOUDY    43  39  87 NE17G23   29.88R
CHARITON *     MIX PCPN  41  41 100 NE15G21   29.86R
DES MOINES     CLOUDY    45  40  82 NE14      29.89R
GRINNELL*      CLOUDY    42  40  93 NE12G17   29.89R
KNOXVILLE *    CLOUDY    43  41  93 NE10G17   29.86R
MARSHALLTOWN   CLOUDY    43  39  86 NE18      29.89R
NEWTON *       CLOUDY    43  39  87 NE16G24   29.88R
PELLA *        CLOUDY    43  41  93 NE8       29.89R
PERRY *        CLOUDY    43  39  87 NE10      29.89S
$$

IAZ004>006-015-016-023>025-035-036-290000-
   NORTH CENTRAL IOWA

CITY           SKY/WX    TMP DP  RH WIND       PRES   REMARKS
ALGONA *       CLOUDY    45  36  70 NE16      29.94R
CLARION *      CLOUDY    45  41  87 NE13      29.92R
ESTHERVILLE    CLOUDY    45  33  63 NE16      29.94S
FORT DODGE *   CLOUDY    43  36  75 N12       29.93S
MASON CITY     CLOUDY    43  36  76 NE8       29.95R
FOREST CITY *  DRIZZLE   43  34  70 NE3       29.94R
WEBSTER CITY * CLOUDY    43  37  81 NE13G18   29.89S
IOWA FALLS *   CLOUDY    43  38  80 NE15G21   29.92R HAZE
$$

IAZ007>011-017>019-026>030-037>042-050>054-066-290000-
   NORTHEAST IOWA

CITY           SKY/WX    TMP DP  RH WIND       PRES   REMARKS
CEDAR RAPIDS   LGT RAIN  43  43 100 N13       29.86R FOG
CHARLES CITY * MOSUNNY   43  36  75 N9        29.92R
CLINTON *      LGT RAIN  46  45  96 NE13      29.88R
DECORAH *      HVY RAIN  43  37  81 N10       29.91F
DUBUQUE        CLOUDY    44  41  89 NE10      29.90R
MONTICELLO *   LGT RAIN  45  43  93 N7G14     29.89R
OELWEIN *      PTSUNNY   45  41  87 NE15      29.91S
WATERLOO       CLOUDY    45  38  76 NE10      29.90S
$$

IAZ064-065-067-068-078-290000-
   EAST CENTRAL IOWA

CITY           SKY/WX    TMP DP  RH WIND       PRES   REMARKS
DAVENPORT      CLOUDY    47  45  93 NE15      29.86R FOG
IOWA CITY      LGT RAIN  45  42  89 N10       29.88R FOG
MUSCATINE *    CLOUDY    46  45  93 NE9G16    29.85R FOG
QUAD CITIES    CLOUDY    50  46  86 NE9       29.84R
$$

IAZ062-063-075>077-085>089-095>099-290000-
   SOUTHEAST IOWA

CITY           SKY/WX    TMP DP  RH WIND       PRES   REMARKS
BURLINGTON     CLOUDY    53  52  96 N12       29.81R FOG
FAIRFIELD *    CLOUDY    45  43  93 NE13      29.83R FOG
FORT MADISON * CLOUDY    54  52  94 N7        29.82R FOG
KEOKUK *       CLOUDY    55  54  94 VRB7      29.79S
OSKALOOSA *    LGT RAIN  42  41  95 NE15      29.86R
OTTUMWA        LGT RAIN  43  43 100 NE13      29.85R FOG
WASHINGTON *   MIX PCPN  45  45 100 N12       29.86R
$$

ABBREVIATIONS USED IN REMARKS
   TC - TEMPERATURES IN CELSIUS
  WCI - WIND CHILL INDEX
   HX - HEAT INDEX
  VSB - VISIBILITY
$$





USA.gov is the U.S. government's official web portal to all federal, state and local government web resources and services.